SND88 YKBA-YBWP

Flight info

Callsign SND88
Flight time 4h 15m
Altitude 33000
Route GUGRA Z55 KA J93 PD J151 CIN/N0452F350 J151 AROXO
Aircraft A319/M-SDE3FGHIRWY/LB1

Departure

Time 2026-04-14 02:20
Airport Ken's Bore airport (YKBA)

Arrival

Time 2026-04-14 06:35
Airport Weipa Airport (YBWP)
Time Latitude Longitude Altitude Speed Heading
2026-04-14 01:57 -22.15797 116.16089 725 ft 0 kts 356°
2026-04-14 02:14 -22.15795 116.16089 725 ft 0 kts 355°
2026-04-14 02:14 -22.15791 116.16084 725 ft 1 kts 296°
2026-04-14 02:15 -22.15801 116.16068 725 ft 3 kts 214°
2026-04-14 02:15 -22.15828 116.16058 725 ft 4 kts 191°
2026-04-14 02:15 -22.15860 116.16045 725 ft 5 kts 215°
2026-04-14 02:15 -22.15890 116.16015 725 ft 6 kts 224°
2026-04-14 02:16 -22.15922 116.15981 725 ft 7 kts 224°
2026-04-14 02:16 -22.15960 116.15941 725 ft 7 kts 225°
2026-04-14 02:16 -22.15956 116.15887 725 ft 8 kts 309°
2026-04-14 02:16 -22.15913 116.15841 725 ft 9 kts 315°
2026-04-14 02:17 -22.15865 116.15788 725 ft 11 kts 314°
2026-04-14 02:17 -22.15796 116.15714 725 ft 15 kts 315°
2026-04-14 02:17 -22.15719 116.15631 725 ft 15 kts 315°
2026-04-14 02:17 -22.15643 116.15549 724 ft 15 kts 314°
2026-04-14 02:18 -22.15569 116.15466 724 ft 15 kts 316°
2026-04-14 02:18 -22.15493 116.15386 724 ft 15 kts 315°
2026-04-14 02:18 -22.15420 116.15306 724 ft 15 kts 314°
2026-04-14 02:18 -22.15347 116.15227 724 ft 14 kts 312°
2026-04-14 02:19 -22.15303 116.15152 724 ft 7 kts 326°
2026-04-14 02:19 -22.15298 116.15173 724 ft 4 kts 129°
2026-04-14 02:19 -22.15301 116.15177 724 ft 3 kts 133°
2026-04-14 02:19 -22.15508 116.15402 725 ft 78 kts 134°
2026-04-14 02:20 -22.16054 116.15994 725 ft 141 kts 134°
2026-04-14 02:20 -22.16864 116.16849 906 ft 175 kts 133°
2026-04-14 02:20 -22.17718 116.17750 1597 ft 172 kts 133°
2026-04-14 02:20 -22.18553 116.18639 2301 ft 169 kts 131°
2026-04-14 02:21 -22.19358 116.19529 2807 ft 168 kts 125°
2026-04-14 02:21 -22.19839 116.20683 3043 ft 176 kts 88°
2026-04-14 02:21 -22.19357 116.21888 3291 ft 187 kts 40°
2026-04-14 02:21 -22.18089 116.22369 3587 ft 204 kts
2026-04-14 02:22 -22.16626 116.22511 3849 ft 222 kts 10°
2026-04-14 02:22 -22.15042 116.22791 4195 ft 239 kts 13°
2026-04-14 02:22 -22.13357 116.23161 4557 ft 257 kts 13°
2026-04-14 02:22 -22.11567 116.23593 5067 ft 269 kts 14°
2026-04-14 02:23 -22.09716 116.24060 5811 ft 273 kts 14°
2026-04-14 02:23 -22.07872 116.24538 6587 ft 275 kts 14°
2026-04-14 02:23 -22.06034 116.25021 7347 ft 277 kts 14°
2026-04-14 02:23 -22.04144 116.25520 8165 ft 279 kts 15°
2026-04-14 02:24 -22.02266 116.26021 8940 ft 281 kts 15°
2026-04-14 02:24 -22.00386 116.26523 9673 ft 283 kts 14°
2026-04-14 02:24 -21.98453 116.27041 10357 ft 287 kts 14°
2026-04-14 02:24 -21.96468 116.27573 10743 ft 302 kts 14°
2026-04-14 02:25 -21.94367 116.28136 11049 ft 319 kts 14°
2026-04-14 02:25 -21.92182 116.28720 11568 ft 327 kts 14°
2026-04-14 02:25 -21.89947 116.29318 12241 ft 330 kts 14°
2026-04-14 02:25 -21.87709 116.29916 12887 ft 333 kts 14°
2026-04-14 02:26 -21.85458 116.30518 13503 ft 336 kts 14°
2026-04-14 02:26 -21.83156 116.31135 14086 ft 340 kts 13°
2026-04-14 02:26 -21.80863 116.31748 14641 ft 345 kts 13°
2026-04-14 02:26 -21.78503 116.32380 15181 ft 349 kts 13°
2026-04-14 02:27 -21.76150 116.33009 15701 ft 354 kts 13°
2026-04-14 02:27 -21.73746 116.33651 16229 ft 358 kts 13°
2026-04-14 02:27 -21.71309 116.34301 16730 ft 362 kts 13°
2026-04-14 02:27 -21.68834 116.34963 17206 ft 366 kts 13°
2026-04-14 02:28 -21.66344 116.35626 17693 ft 370 kts 12°
2026-04-14 02:28 -21.63836 116.36296 18191 ft 374 kts 12°
2026-04-14 02:28 -21.61299 116.36973 18710 ft 376 kts 12°
2026-04-14 02:28 -21.58745 116.37653 19217 ft 379 kts 12°
2026-04-14 02:29 -21.56180 116.38339 19700 ft 382 kts 11°
2026-04-14 02:29 -21.53589 116.39029 20183 ft 385 kts 11°
2026-04-14 02:29 -21.50978 116.39723 20660 ft 388 kts 11°
2026-04-14 02:29 -21.48336 116.40425 21127 ft 391 kts 11°
2026-04-14 02:30 -21.45672 116.41135 21581 ft 395 kts 10°
2026-04-14 02:30 -21.42995 116.41848 22035 ft 397 kts 11°
2026-04-14 02:30 -21.40337 116.42667 22486 ft 402 kts 14°
2026-04-14 02:30 -21.37709 116.43701 22913 ft 407 kts 18°
2026-04-14 02:31 -21.35103 116.44954 23321 ft 411 kts 21°
2026-04-14 02:31 -21.32496 116.46286 23702 ft 415 kts 21°
2026-04-14 02:31 -21.29886 116.47629 24062 ft 418 kts 21°
2026-04-14 02:31 -21.27258 116.48981 24422 ft 421 kts 21°
2026-04-14 02:32 -21.24609 116.50340 24783 ft 424 kts 21°
2026-04-14 02:32 -21.21940 116.51705 25108 ft 427 kts 21°
2026-04-14 02:32 -21.19235 116.53088 25417 ft 431 kts 20°
2026-04-14 02:32 -21.16513 116.54479 25720 ft 434 kts 20°
2026-04-14 02:33 -21.13782 116.55872 26051 ft 437 kts 20°
2026-04-14 02:33 -21.11033 116.57274 26368 ft 439 kts 20°
2026-04-14 02:33 -21.08268 116.58684 26667 ft 442 kts 20°
2026-04-14 02:34 -21.02687 116.61529 27328 ft 446 kts 20°
2026-04-14 02:34 -20.99883 116.62955 27592 ft 450 kts 20°
2026-04-14 02:34 -20.97044 116.64400 27880 ft 453 kts 20°
2026-04-14 02:34 -20.94179 116.65858 28153 ft 455 kts 19°
2026-04-14 02:35 -20.91284 116.67329 28402 ft 458 kts 19°
2026-04-14 02:35 -20.88427 116.68784 28675 ft 460 kts 19°
2026-04-14 02:35 -20.85511 116.70267 28940 ft 462 kts 19°
2026-04-14 02:35 -20.82616 116.71738 29195 ft 464 kts 19°
2026-04-14 02:36 -20.79697 116.73219 29541 ft 464 kts 19°
2026-04-14 02:36 -20.76786 116.74782 29882 ft 468 kts 25°
2026-04-14 02:36 -20.74179 116.76896 30116 ft 479 kts 40°
2026-04-14 02:36 -20.72041 116.79639 30317 ft 488 kts 54°
2026-04-14 02:37 -20.70518 116.82892 30535 ft 494 kts 70°
2026-04-14 02:37 -20.69678 116.86430 30821 ft 494 kts 79°
2026-04-14 02:37 -20.69073 116.90050 31163 ft 493 kts 81°
2026-04-14 02:37 -20.68502 116.93651 31468 ft 493 kts 81°
2026-04-14 02:38 -20.67922 116.97233 31778 ft 492 kts 81°
2026-04-14 02:38 -20.67318 117.00826 32078 ft 492 kts 80°
2026-04-14 02:38 -20.66701 117.04404 32376 ft 492 kts 80°
2026-04-14 02:38 -20.66075 117.07969 32645 ft 492 kts 80°
2026-04-14 02:39 -20.65441 117.11550 32964 ft 492 kts 80°
2026-04-14 02:39 -20.64811 117.15093 33319 ft 491 kts 80°
2026-04-14 02:39 -20.64167 117.18697 33655 ft 491 kts 80°
2026-04-14 02:39 -20.63528 117.22266 33954 ft 491 kts 80°
2026-04-14 02:40 -20.62891 117.25830 34231 ft 491 kts 80°
2026-04-14 02:40 -20.62254 117.29382 34494 ft 492 kts 79°
2026-04-14 02:40 -20.61606 117.32985 34772 ft 492 kts 79°
2026-04-14 02:40 -20.60963 117.36559 34979 ft 493 kts 80°
2026-04-14 02:41 -20.60317 117.40139 34984 ft 493 kts 79°
2026-04-14 02:41 -20.59027 117.47285 34988 ft 493 kts 79°
2026-04-14 02:42 -20.57729 117.54461 34988 ft 492 kts 79°
2026-04-14 02:42 -20.56435 117.61601 34990 ft 492 kts 80°
2026-04-14 02:43 -20.55139 117.68741 34987 ft 492 kts 79°
2026-04-14 02:43 -20.53832 117.75909 34987 ft 492 kts 79°
2026-04-14 02:44 -20.52529 117.83041 34987 ft 492 kts 79°
2026-04-14 02:44 -20.51223 117.90170 34985 ft 492 kts 79°
2026-04-14 02:45 -20.49913 117.97322 34987 ft 492 kts 79°
2026-04-14 02:45 -20.48600 118.04457 34985 ft 492 kts 79°
2026-04-14 02:46 -20.47290 118.11559 34986 ft 491 kts 79°
2026-04-14 02:46 -20.45972 118.18687 34985 ft 491 kts 79°
2026-04-14 02:47 -20.44656 118.25794 34986 ft 490 kts 79°
2026-04-14 02:47 -20.43331 118.32926 34986 ft 490 kts 79°
2026-04-14 02:48 -20.42008 118.40031 34988 ft 490 kts 79°
2026-04-14 02:48 -20.40685 118.47123 34993 ft 489 kts 79°
2026-04-14 02:49 -20.39358 118.54200 34997 ft 488 kts 78°
2026-04-14 02:49 -20.37596 118.61152 34999 ft 487 kts 70°
2026-04-14 02:50 -20.35021 118.67799 34999 ft 485 kts 62°
2026-04-14 02:50 -20.31839 118.74120 34998 ft 485 kts 59°
2026-04-14 02:51 -20.28596 118.80392 34994 ft 484 kts 59°
2026-04-14 02:51 -20.25387 118.86636 34988 ft 484 kts 59°
2026-04-14 02:52 -20.22163 118.92924 34987 ft 484 kts 59°
2026-04-14 02:52 -20.18931 118.99229 34989 ft 484 kts 60°
2026-04-14 02:53 -20.15734 119.05462 34987 ft 483 kts 59°
2026-04-14 02:53 -20.12511 119.11736 34988 ft 483 kts 59°
2026-04-14 02:54 -20.09294 119.17992 34986 ft 482 kts 60°
2026-04-14 02:54 -20.06088 119.24224 34985 ft 481 kts 59°
2026-04-14 02:55 -20.02882 119.30443 34985 ft 481 kts 60°
2026-04-14 02:55 -19.99663 119.36682 34978 ft 481 kts 60°
2026-04-14 02:56 -19.96457 119.42888 34967 ft 480 kts 60°
2026-04-14 02:56 -19.93248 119.49099 34964 ft 480 kts 60°
2026-04-14 02:57 -19.90054 119.55271 34963 ft 479 kts 59°
2026-04-14 02:57 -19.86840 119.61475 34962 ft 479 kts 60°
2026-04-14 02:58 -19.83628 119.67670 34963 ft 479 kts 59°
2026-04-14 02:58 -19.80422 119.73843 34966 ft 478 kts 59°
2026-04-14 02:59 -19.77214 119.80015 34967 ft 478 kts 59°
2026-04-14 02:59 -19.74020 119.86151 34966 ft 477 kts 59°
2026-04-14 03:00 -19.70798 119.92336 34966 ft 477 kts 59°
2026-04-14 03:00 -19.67609 119.98456 34973 ft 476 kts 59°
2026-04-14 03:01 -19.64414 120.04578 34983 ft 475 kts 59°
2026-04-14 03:01 -19.61204 120.10720 34989 ft 475 kts 59°
2026-04-14 03:02 -19.58014 120.16822 34993 ft 474 kts 59°
2026-04-14 03:02 -19.54821 120.22920 34996 ft 475 kts 59°
2026-04-14 03:03 -19.51625 120.29015 34996 ft 476 kts 59°
2026-04-14 03:03 -19.48406 120.35153 34998 ft 476 kts 59°
2026-04-14 03:04 -19.45209 120.41242 34999 ft 475 kts 59°
2026-04-14 03:04 -19.41988 120.47372 34999 ft 475 kts 59°
2026-04-14 03:05 -19.38786 120.53457 35001 ft 475 kts 59°
2026-04-14 03:05 -19.35583 120.59534 35002 ft 474 kts 59°
2026-04-14 03:06 -19.32366 120.65612 35002 ft 474 kts 59°
2026-04-14 03:06 -19.29133 120.71716 35003 ft 473 kts 59°
2026-04-14 03:07 -19.25932 120.77759 35003 ft 473 kts 59°
2026-04-14 03:07 -19.22711 120.83833 34998 ft 472 kts 59°
2026-04-14 03:08 -19.19507 120.89869 34989 ft 471 kts 59°
2026-04-14 03:08 -19.16309 120.95887 34986 ft 471 kts 59°
2026-04-14 03:09 -19.13096 121.01926 34984 ft 471 kts 59°
2026-04-14 03:09 -19.09890 121.07951 34985 ft 470 kts 59°
2026-04-14 03:10 -19.06691 121.13953 34984 ft 470 kts 59°
2026-04-14 03:10 -19.03485 121.19962 34985 ft 470 kts 59°
2026-04-14 03:11 -19.00295 121.25936 34984 ft 470 kts 59°
2026-04-14 03:11 -18.97074 121.31963 34984 ft 469 kts 59°
2026-04-14 03:12 -18.93884 121.37926 34984 ft 469 kts 59°
2026-04-14 03:12 -18.90690 121.43889 34985 ft 469 kts 59°
2026-04-14 03:13 -18.87478 121.49880 34985 ft 467 kts 59°
2026-04-14 03:13 -18.84293 121.55817 34985 ft 466 kts 59°
2026-04-14 03:14 -18.81106 121.61749 34986 ft 465 kts 59°
2026-04-14 03:14 -18.77912 121.67690 34985 ft 466 kts 59°
2026-04-14 03:15 -18.74721 121.73621 34987 ft 465 kts 59°
2026-04-14 03:15 -18.71534 121.79536 34988 ft 464 kts 59°
2026-04-14 03:16 -18.68348 121.85446 34990 ft 464 kts 59°
2026-04-14 03:16 -18.65174 121.91326 34993 ft 464 kts 59°
2026-04-14 03:17 -18.61984 121.97231 34996 ft 463 kts 58°
2026-04-14 03:17 -18.57216 122.06047 34997 ft 462 kts 59°
2026-04-14 03:18 -18.54050 122.11894 35000 ft 461 kts 58°
2026-04-14 03:18 -18.50870 122.17760 35002 ft 461 kts 58°
2026-04-14 03:19 -18.47701 122.23601 35004 ft 460 kts 58°
2026-04-14 03:19 -18.44529 122.29443 35004 ft 461 kts 58°
2026-04-14 03:20 -18.41340 122.35310 35003 ft 460 kts 58°
2026-04-14 03:20 -18.38176 122.41127 35004 ft 460 kts 58°
2026-04-14 03:21 -18.35017 122.46928 35004 ft 459 kts 58°
2026-04-14 03:21 -18.31835 122.52765 35005 ft 459 kts 58°
2026-04-14 03:22 -18.28655 122.58592 35004 ft 459 kts 58°
2026-04-14 03:22 -18.25497 122.64375 34996 ft 458 kts 59°
2026-04-14 03:23 -18.22329 122.70174 34991 ft 458 kts 58°
2026-04-14 03:23 -18.19142 122.76001 34994 ft 458 kts 58°
2026-04-14 03:24 -18.15980 122.81775 34992 ft 458 kts 58°
2026-04-14 03:24 -18.12814 122.87550 34990 ft 457 kts 58°
2026-04-14 03:25 -18.09631 122.93353 34993 ft 457 kts 58°
2026-04-14 03:25 -18.06468 122.99113 34992 ft 457 kts 58°
2026-04-14 03:26 -18.03291 123.04894 34992 ft 456 kts 58°
2026-04-14 03:26 -18.00138 123.10631 34990 ft 456 kts 58°
2026-04-14 03:27 -17.96960 123.16403 34988 ft 457 kts 58°
2026-04-14 03:27 -17.93783 123.22168 34980 ft 456 kts 58°
2026-04-14 03:28 -17.90616 123.27910 34982 ft 456 kts 58°
2026-04-14 03:28 -17.87417 123.33705 34980 ft 456 kts 58°
2026-04-14 03:29 -17.84252 123.39432 34973 ft 456 kts 58°
2026-04-14 03:29 -17.81064 123.45198 34973 ft 456 kts 58°
2026-04-14 03:30 -17.77897 123.50922 34968 ft 455 kts 58°
2026-04-14 03:30 -17.74712 123.56672 34968 ft 456 kts 58°
2026-04-14 03:31 -17.71537 123.62401 34970 ft 456 kts 58°
2026-04-14 03:31 -17.68359 123.68128 34973 ft 455 kts 58°
2026-04-14 03:32 -17.65185 123.73844 34978 ft 455 kts 58°
2026-04-14 03:32 -17.61994 123.79586 34982 ft 455 kts 58°
2026-04-14 03:33 -17.58753 123.85252 34981 ft 454 kts 54°
2026-04-14 03:33 -17.55102 123.90620 34982 ft 453 kts 52°
2026-04-14 03:34 -17.49497 123.98611 34979 ft 453 kts 52°
2026-04-14 03:35 -17.45779 124.03920 34976 ft 453 kts 52°
2026-04-14 03:35 -17.42058 124.09230 34973 ft 453 kts 52°
2026-04-14 03:36 -17.38356 124.14514 34974 ft 453 kts 52°
2026-04-14 03:36 -17.34609 124.19858 34975 ft 453 kts 52°
2026-04-14 03:37 -17.30904 124.25137 34978 ft 452 kts 52°
2026-04-14 03:37 -17.27187 124.30431 34981 ft 452 kts 52°
2026-04-14 03:38 -17.23463 124.35729 34981 ft 452 kts 52°
2026-04-14 03:38 -17.19733 124.41032 34985 ft 452 kts 52°
2026-04-14 03:39 -17.16013 124.46317 34989 ft 452 kts 52°
2026-04-14 03:39 -17.12308 124.51576 34996 ft 452 kts 52°
2026-04-14 03:40 -17.08576 124.56870 35006 ft 451 kts 52°
2026-04-14 03:40 -17.04850 124.62150 35005 ft 451 kts 52°
2026-04-14 03:41 -17.01141 124.67400 35004 ft 451 kts 52°
2026-04-14 03:41 -16.97412 124.72683 35009 ft 451 kts 51°
2026-04-14 03:42 -16.93705 124.77927 35006 ft 450 kts 51°
2026-04-14 03:42 -16.89981 124.83187 35006 ft 450 kts 51°
2026-04-14 03:43 -16.86248 124.88457 35006 ft 449 kts 51°
2026-04-14 03:43 -16.82540 124.93689 35003 ft 450 kts 51°
2026-04-14 03:44 -16.78819 124.98933 35002 ft 450 kts 52°
2026-04-14 03:44 -16.75094 125.04185 35006 ft 450 kts 51°
2026-04-14 03:45 -16.71392 125.09399 35010 ft 450 kts 51°
2026-04-14 03:45 -16.67663 125.14642 35011 ft 449 kts 52°
2026-04-14 03:46 -16.63946 125.19867 35014 ft 449 kts 52°
2026-04-14 03:46 -16.60250 125.25060 35014 ft 449 kts 52°
2026-04-14 03:47 -16.56537 125.30272 35016 ft 448 kts 52°
2026-04-14 03:47 -16.52801 125.35515 35020 ft 448 kts 52°
2026-04-14 03:48 -16.49087 125.40723 35024 ft 449 kts 52°
2026-04-14 03:48 -16.45371 125.45929 35024 ft 448 kts 52°
2026-04-14 03:49 -16.41658 125.51121 35028 ft 448 kts 52°
2026-04-14 03:49 -16.37946 125.56308 35031 ft 448 kts 52°
2026-04-14 03:50 -16.34225 125.61505 35033 ft 448 kts 52°
2026-04-14 03:50 -16.30503 125.66703 35034 ft 448 kts 52°
2026-04-14 03:51 -16.26773 125.71909 35041 ft 448 kts 51°
2026-04-14 03:51 -16.23068 125.77076 35045 ft 447 kts 51°
2026-04-14 03:52 -16.19355 125.82251 35049 ft 447 kts 52°
2026-04-14 03:52 -16.15636 125.87431 35052 ft 446 kts 52°
2026-04-14 03:53 -16.11920 125.92601 35055 ft 446 kts 52°
2026-04-14 03:53 -16.08206 125.97764 35055 ft 446 kts 52°
2026-04-14 03:54 -16.04493 126.02924 35055 ft 447 kts 52°
2026-04-14 03:54 -16.00789 126.08069 35056 ft 447 kts 52°
2026-04-14 03:55 -15.97077 126.13222 35055 ft 446 kts 52°
2026-04-14 03:55 -15.93342 126.18400 35052 ft 446 kts 52°
2026-04-14 03:56 -15.89637 126.23535 35048 ft 445 kts 52°
2026-04-14 03:56 -15.85927 126.28672 35045 ft 445 kts 52°
2026-04-14 03:57 -15.82207 126.33820 35041 ft 446 kts 52°
2026-04-14 03:57 -15.78481 126.38972 35038 ft 445 kts 52°
2026-04-14 03:58 -15.74782 126.44085 35038 ft 445 kts 52°
2026-04-14 03:58 -15.71058 126.49226 35035 ft 445 kts 52°
2026-04-14 03:59 -15.67358 126.54333 35031 ft 444 kts 52°
2026-04-14 03:59 -15.63631 126.59473 35027 ft 444 kts 51°
2026-04-14 04:00 -15.59936 126.64566 35022 ft 444 kts 51°
2026-04-14 04:00 -15.56194 126.69717 35018 ft 444 kts 51°
2026-04-14 04:01 -15.52477 126.74835 35016 ft 444 kts 51°
2026-04-14 04:01 -15.48767 126.79936 35012 ft 443 kts 51°
2026-04-14 04:02 -15.45064 126.85027 35009 ft 443 kts 51°
2026-04-14 04:02 -15.41358 126.90117 35006 ft 442 kts 51°
2026-04-14 04:03 -15.37677 126.95169 35003 ft 442 kts 51°
2026-04-14 04:03 -15.33955 127.00273 35002 ft 442 kts 51°
2026-04-14 04:04 -15.30256 127.05343 35002 ft 442 kts 51°
2026-04-14 04:04 -15.26576 127.10386 34999 ft 441 kts 51°
2026-04-14 04:05 -15.22858 127.15477 34997 ft 441 kts 51°
2026-04-14 04:05 -15.19164 127.20528 34996 ft 441 kts 51°
2026-04-14 04:06 -15.15472 127.25576 34996 ft 441 kts 51°
2026-04-14 04:06 -15.11774 127.30628 34992 ft 441 kts 51°
2026-04-14 04:07 -15.08080 127.35672 34993 ft 441 kts 51°
2026-04-14 04:07 -15.04380 127.40722 34989 ft 440 kts 51°
2026-04-14 04:08 -15.00677 127.45772 34987 ft 439 kts 51°
2026-04-14 04:08 -14.96982 127.50808 34986 ft 439 kts 51°
2026-04-14 04:09 -14.93308 127.55814 34986 ft 440 kts 51°
2026-04-14 04:09 -14.89603 127.60857 34989 ft 440 kts 51°
2026-04-14 04:10 -14.85899 127.65895 34985 ft 440 kts 51°
2026-04-14 04:10 -14.82186 127.70934 34981 ft 440 kts 51°
2026-04-14 04:11 -14.78490 127.75948 34978 ft 440 kts 51°
2026-04-14 04:11 -14.74790 127.80968 34971 ft 439 kts 51°
2026-04-14 04:12 -14.71097 127.85973 34968 ft 438 kts 51°
2026-04-14 04:12 -14.67384 127.91005 34964 ft 438 kts 51°
2026-04-14 04:13 -14.63696 127.96000 34958 ft 439 kts 51°
2026-04-14 04:13 -14.59992 128.01013 34954 ft 439 kts 51°
2026-04-14 04:14 -14.56302 128.06003 34950 ft 440 kts 51°
2026-04-14 04:14 -14.52590 128.11020 34947 ft 439 kts 51°
2026-04-14 04:15 -14.48893 128.16016 34944 ft 439 kts 51°
2026-04-14 04:15 -14.45194 128.21007 34938 ft 439 kts 51°
2026-04-14 04:16 -14.41485 128.26013 34934 ft 439 kts 51°
2026-04-14 04:16 -14.37767 128.31029 34929 ft 439 kts 51°
2026-04-14 04:17 -14.34072 128.36006 34924 ft 439 kts 51°
2026-04-14 04:17 -14.30344 128.41026 34923 ft 440 kts 51°
2026-04-14 04:18 -14.26648 128.46004 34921 ft 439 kts 51°
2026-04-14 04:18 -14.22927 128.51010 34922 ft 439 kts 51°
2026-04-14 04:19 -14.19212 128.56006 34921 ft 439 kts 51°
2026-04-14 04:19 -14.15520 128.60967 34922 ft 439 kts 51°
2026-04-14 04:20 -14.11779 128.65985 34919 ft 439 kts 51°
2026-04-14 04:20 -14.08086 128.70943 34921 ft 439 kts 51°
2026-04-14 04:21 -14.04359 128.75943 34921 ft 439 kts 51°
2026-04-14 04:21 -14.00638 128.80931 34920 ft 439 kts 51°
2026-04-14 04:22 -13.96944 128.85883 34921 ft 438 kts 51°
2026-04-14 04:22 -13.93226 128.90863 34920 ft 438 kts 51°
2026-04-14 04:23 -13.89508 128.95842 34919 ft 439 kts 51°
2026-04-14 04:23 -13.85802 129.00800 34919 ft 439 kts 51°
2026-04-14 04:24 -13.82075 129.05783 34920 ft 438 kts 51°
2026-04-14 04:24 -13.78366 129.10742 34920 ft 438 kts 51°
2026-04-14 04:25 -13.74669 129.15680 34918 ft 437 kts 51°
2026-04-14 04:25 -13.70948 129.20644 34912 ft 437 kts 51°
2026-04-14 04:26 -13.67264 129.25560 34912 ft 437 kts 51°
2026-04-14 04:26 -13.63550 129.30512 34912 ft 436 kts 51°
2026-04-14 04:27 -13.59836 129.35460 34910 ft 436 kts 51°
2026-04-14 04:27 -13.56155 129.40364 34905 ft 435 kts 51°
2026-04-14 04:28 -13.52440 129.45308 34908 ft 436 kts 51°
2026-04-14 04:28 -13.48762 129.50201 34906 ft 435 kts 51°
2026-04-14 04:29 -13.45060 129.55121 34904 ft 435 kts 52°
2026-04-14 04:29 -13.41349 129.60053 34902 ft 435 kts 52°
2026-04-14 04:30 -13.37644 129.64975 34901 ft 435 kts 51°
2026-04-14 04:30 -13.33949 129.69881 34895 ft 434 kts 51°
2026-04-14 04:31 -13.30273 129.74757 34891 ft 434 kts 51°
2026-04-14 04:31 -13.24725 129.82115 34890 ft 434 kts 51°
2026-04-14 04:32 -13.21037 129.86997 34892 ft 434 kts 51°
2026-04-14 04:32 -13.17330 129.91899 34895 ft 434 kts 51°
2026-04-14 04:33 -13.13636 129.96785 34901 ft 433 kts 51°
2026-04-14 04:33 -13.09942 130.01671 34901 ft 433 kts 51°
2026-04-14 04:34 -13.06254 130.06547 34904 ft 433 kts 51°
2026-04-14 04:34 -13.02565 130.11420 34904 ft 433 kts 51°
2026-04-14 04:35 -12.98890 130.16272 34903 ft 433 kts 51°
2026-04-14 04:35 -12.95189 130.21155 34906 ft 433 kts 52°
2026-04-14 04:36 -12.91495 130.26027 34907 ft 432 kts 52°
2026-04-14 04:36 -12.87821 130.30872 34908 ft 433 kts 52°
2026-04-14 04:37 -12.84113 130.35757 34907 ft 432 kts 52°
2026-04-14 04:37 -12.80430 130.40608 34901 ft 432 kts 52°
2026-04-14 04:38 -12.76738 130.45468 34898 ft 432 kts 52°
2026-04-14 04:38 -12.73060 130.50307 34890 ft 432 kts 52°
2026-04-14 04:39 -12.69375 130.55151 34887 ft 431 kts 52°
2026-04-14 04:39 -12.65678 130.60008 34883 ft 432 kts 52°
2026-04-14 04:40 -12.61988 130.64856 34883 ft 432 kts 52°
2026-04-14 04:41 -12.56440 130.72141 34883 ft 432 kts 52°
2026-04-14 04:41 -12.52768 130.76959 34889 ft 431 kts 52°
2026-04-14 04:42 -12.49082 130.81793 34890 ft 431 kts 52°
2026-04-14 04:42 -12.45699 130.86874 34892 ft 432 kts 61°
2026-04-14 04:43 -12.43390 130.92531 34894 ft 432 kts 73°
2026-04-14 04:43 -12.42263 130.98531 34893 ft 433 kts 84°
2026-04-14 04:44 -12.42074 131.04684 34891 ft 434 kts 88°
2026-04-14 04:44 -12.41993 131.10847 34887 ft 433 kts 88°
2026-04-14 04:45 -12.41903 131.16965 34883 ft 433 kts 88°
2026-04-14 04:45 -12.41801 131.23128 34884 ft 432 kts 88°
2026-04-14 04:46 -12.41697 131.29231 34884 ft 432 kts 88°
2026-04-14 04:46 -12.41591 131.35384 34883 ft 433 kts 88°
2026-04-14 04:47 -12.41483 131.41498 34882 ft 433 kts 88°
2026-04-14 04:47 -12.41372 131.47669 34882 ft 433 kts 88°
2026-04-14 04:48 -12.41261 131.53795 34881 ft 432 kts 88°
2026-04-14 04:48 -12.41148 131.59943 34881 ft 432 kts 88°
2026-04-14 04:49 -12.41034 131.66067 34882 ft 432 kts 88°
2026-04-14 04:49 -12.40918 131.72200 34879 ft 432 kts 88°
2026-04-14 04:50 -12.40802 131.78311 34880 ft 432 kts 88°
2026-04-14 04:50 -12.40684 131.84422 34874 ft 432 kts 88°
2026-04-14 04:51 -12.40564 131.90547 34871 ft 432 kts 88°
2026-04-14 04:51 -12.40443 131.96678 34866 ft 432 kts 88°
2026-04-14 04:52 -12.40320 132.02812 34865 ft 431 kts 88°
2026-04-14 04:52 -12.40197 132.08907 34865 ft 431 kts 88°
2026-04-14 04:53 -12.40071 132.15048 34865 ft 431 kts 88°
2026-04-14 04:53 -12.39945 132.21147 34866 ft 431 kts 88°
2026-04-14 04:54 -12.39816 132.27239 34862 ft 431 kts 88°
2026-04-14 04:54 -12.39691 132.33357 34860 ft 430 kts 88°
2026-04-14 04:55 -12.39563 132.39455 34861 ft 430 kts 88°
2026-04-14 04:55 -12.39431 132.45569 34859 ft 430 kts 88°
2026-04-14 04:56 -12.39300 132.51654 34861 ft 430 kts 88°
2026-04-14 04:56 -12.39166 132.57732 34865 ft 429 kts 88°
2026-04-14 04:57 -12.39030 132.63850 34869 ft 429 kts 88°
2026-04-14 04:57 -12.38894 132.69933 34872 ft 429 kts 88°
2026-04-14 04:58 -12.38757 132.76025 34874 ft 429 kts 88°
2026-04-14 04:58 -12.38618 132.82092 34878 ft 429 kts 88°
2026-04-14 04:59 -12.38478 132.88181 34871 ft 428 kts 88°
2026-04-14 04:59 -12.38336 132.94238 34875 ft 428 kts 88°
2026-04-14 05:00 -12.38193 133.00313 34871 ft 429 kts 88°
2026-04-14 05:00 -12.38050 133.06401 34876 ft 428 kts 88°
2026-04-14 05:01 -12.37905 133.12453 34877 ft 428 kts 88°
2026-04-14 05:01 -12.37758 133.18549 34884 ft 428 kts 88°
2026-04-14 05:02 -12.37610 133.24623 34889 ft 428 kts 88°
2026-04-14 05:02 -12.37462 133.30678 34891 ft 428 kts 87°
2026-04-14 05:03 -12.37312 133.36720 34891 ft 428 kts 87°
2026-04-14 05:03 -12.37159 133.42798 34893 ft 428 kts 88°
2026-04-14 05:04 -12.37007 133.48839 34902 ft 427 kts 88°
2026-04-14 05:04 -12.36852 133.54930 34903 ft 427 kts 87°
2026-04-14 05:05 -12.36696 133.60962 34902 ft 427 kts 87°
2026-04-14 05:05 -12.36538 133.67044 34903 ft 427 kts 87°
2026-04-14 05:06 -12.36379 133.73126 34901 ft 427 kts 87°
2026-04-14 05:06 -12.36220 133.79158 34902 ft 427 kts 87°
2026-04-14 05:07 -12.36059 133.85220 34896 ft 427 kts 87°
2026-04-14 05:07 -12.35896 133.91260 34887 ft 427 kts 87°
2026-04-14 05:08 -12.35732 133.97325 34873 ft 427 kts 87°
2026-04-14 05:08 -12.35567 134.03371 34863 ft 427 kts 87°
2026-04-14 05:09 -12.35400 134.09438 34858 ft 427 kts 87°
2026-04-14 05:09 -12.35233 134.15466 34853 ft 427 kts 87°
2026-04-14 05:10 -12.35064 134.21524 34851 ft 427 kts 87°
2026-04-14 05:10 -12.34892 134.27596 34848 ft 426 kts 87°
2026-04-14 05:11 -12.34719 134.33637 34848 ft 427 kts 87°
2026-04-14 05:11 -12.34546 134.39668 34846 ft 427 kts 87°
2026-04-14 05:12 -12.34373 134.45717 34846 ft 427 kts 87°
2026-04-14 05:12 -12.34199 134.51746 34844 ft 426 kts 87°
2026-04-14 05:13 -12.34023 134.57799 34844 ft 426 kts 87°
2026-04-14 05:13 -12.33844 134.63863 34846 ft 426 kts 87°
2026-04-14 05:14 -12.33664 134.69910 34847 ft 426 kts 87°
2026-04-14 05:14 -12.33482 134.75964 34849 ft 426 kts 87°
2026-04-14 05:15 -12.33298 134.82025 34848 ft 426 kts 87°
2026-04-14 05:15 -12.33114 134.88068 34845 ft 426 kts 87°
2026-04-14 05:16 -12.32930 134.94093 34845 ft 426 kts 87°
2026-04-14 05:16 -12.32744 135.00120 34841 ft 426 kts 87°
2026-04-14 05:17 -12.32558 135.06149 34843 ft 426 kts 87°
2026-04-14 05:17 -12.32367 135.12192 34843 ft 426 kts 87°
2026-04-14 05:18 -12.32176 135.18225 34845 ft 426 kts 87°
2026-04-14 05:18 -12.31985 135.24268 34844 ft 425 kts 87°
2026-04-14 05:19 -12.31793 135.30302 34844 ft 425 kts 86°
2026-04-14 05:19 -12.31601 135.36295 34843 ft 424 kts 86°
2026-04-14 05:20 -12.31403 135.42364 34935 ft 431 kts 86°
2026-04-14 05:20 -12.31302 135.45432 35190 ft 432 kts 86°
2026-04-14 05:20 -12.31202 135.48463 35546 ft 432 kts 87°
2026-04-14 05:20 -12.31100 135.51549 35921 ft 431 kts 87°
2026-04-14 05:21 -12.31001 135.54568 36250 ft 430 kts 87°
2026-04-14 05:21 -12.30900 135.57625 36543 ft 430 kts 87°
2026-04-14 05:21 -12.30800 135.60660 36808 ft 430 kts 87°
2026-04-14 05:22 -12.30597 135.66783 36839 ft 430 kts 87°
2026-04-14 05:22 -12.30397 135.72861 36838 ft 429 kts 86°
2026-04-14 05:23 -12.30194 135.78920 36835 ft 429 kts 86°
2026-04-14 05:23 -12.29987 135.85002 36834 ft 429 kts 86°
2026-04-14 05:24 -12.29779 135.91112 36836 ft 429 kts 86°
2026-04-14 05:24 -12.29571 135.97159 36834 ft 429 kts 86°
2026-04-14 05:25 -12.29359 136.03264 36831 ft 429 kts 86°
2026-04-14 05:25 -12.29147 136.09351 36842 ft 429 kts 86°
2026-04-14 05:26 -12.28935 136.15396 36847 ft 427 kts 86°
2026-04-14 05:26 -12.28722 136.21451 36852 ft 427 kts 85°
2026-04-14 05:27 -12.28508 136.27478 36851 ft 426 kts 85°
2026-04-14 05:27 -12.28290 136.33513 36855 ft 426 kts 85°
2026-04-14 05:28 -12.28074 136.39551 36855 ft 425 kts 85°
2026-04-14 05:28 -12.27855 136.45569 36857 ft 425 kts 85°
2026-04-14 05:29 -12.27635 136.51594 36859 ft 424 kts 85°
2026-04-14 05:29 -12.27418 136.57602 36861 ft 424 kts 85°
2026-04-14 05:30 -12.27199 136.63596 36860 ft 423 kts 85°
2026-04-14 05:30 -12.26974 136.69585 36855 ft 422 kts 85°
2026-04-14 05:31 -12.26976 136.75558 36858 ft 425 kts 91°
2026-04-14 05:31 -12.27910 136.81538 36862 ft 428 kts 100°
2026-04-14 05:32 -12.29819 136.87323 36859 ft 433 kts 109°
2026-04-14 05:32 -12.32569 136.92780 36859 ft 435 kts 114°
2026-04-14 05:33 -12.35516 136.98187 36853 ft 435 kts 114°
2026-04-14 05:33 -12.38445 137.03566 36850 ft 435 kts 114°
2026-04-14 05:34 -12.42841 137.11668 36850 ft 435 kts 114°
2026-04-14 05:34 -12.45768 137.17078 36845 ft 434 kts 114°
2026-04-14 05:35 -12.48691 137.22481 36842 ft 435 kts 114°
2026-04-14 05:35 -12.51603 137.27866 36841 ft 435 kts 114°
2026-04-14 05:36 -12.54526 137.33276 36841 ft 435 kts 114°
2026-04-14 05:36 -12.57460 137.38704 36840 ft 436 kts 114°
2026-04-14 05:37 -12.60377 137.44106 36837 ft 435 kts 114°
2026-04-14 05:37 -12.63307 137.49539 36838 ft 435 kts 114°
2026-04-14 05:38 -12.66215 137.54933 36839 ft 435 kts 114°
2026-04-14 05:38 -12.69140 137.60362 36837 ft 436 kts 114°
2026-04-14 05:39 -12.72077 137.65816 36839 ft 436 kts 114°
2026-04-14 05:39 -12.74980 137.71205 36838 ft 435 kts 114°
2026-04-14 05:40 -12.77889 137.76613 36834 ft 434 kts 114°
2026-04-14 05:40 -12.80803 137.82036 36831 ft 435 kts 114°
2026-04-14 05:41 -12.83711 137.87453 36825 ft 435 kts 114°
2026-04-14 05:41 -12.86645 137.92915 36822 ft 436 kts 114°
2026-04-14 05:42 -12.89550 137.98332 36822 ft 436 kts 114°
2026-04-14 05:42 -12.92469 138.03773 36821 ft 436 kts 114°
2026-04-14 05:43 -12.95380 138.09206 36822 ft 436 kts 114°
2026-04-14 05:43 -12.98295 138.14651 36833 ft 436 kts 114°
2026-04-14 05:44 -13.01195 138.20067 36837 ft 435 kts 114°
2026-04-14 05:44 -13.04122 138.25537 36840 ft 436 kts 114°
2026-04-14 05:45 -13.07021 138.30960 36843 ft 437 kts 114°
2026-04-14 05:45 -13.09950 138.36444 36842 ft 437 kts 114°
2026-04-14 05:46 -13.12863 138.41901 36844 ft 437 kts 114°
2026-04-14 05:46 -13.15775 138.47360 36844 ft 437 kts 114°
2026-04-14 05:47 -13.18687 138.52821 36844 ft 437 kts 114°
2026-04-14 05:47 -13.21597 138.58281 36844 ft 437 kts 114°
2026-04-14 05:48 -13.24501 138.63733 36841 ft 438 kts 114°
2026-04-14 05:48 -13.27425 138.69229 36837 ft 438 kts 114°
2026-04-14 05:49 -13.30318 138.74670 36831 ft 438 kts 114°
2026-04-14 05:49 -13.33231 138.80153 36831 ft 438 kts 114°
2026-04-14 05:50 -13.36151 138.85652 36832 ft 438 kts 114°
2026-04-14 05:50 -13.39063 138.91139 36830 ft 439 kts 114°
2026-04-14 05:51 -13.41970 138.96628 36831 ft 439 kts 114°
2026-04-14 05:51 -13.44894 139.02147 36832 ft 438 kts 114°
2026-04-14 05:52 -13.47798 139.07619 36831 ft 438 kts 114°
2026-04-14 05:52 -13.50757 139.13083 36812 ft 437 kts 114°
2026-04-14 05:53 -13.52220 139.15778 36525 ft 432 kts 114°
2026-04-14 05:53 -13.53678 139.18460 35876 ft 431 kts 114°
2026-04-14 05:53 -13.55141 139.21162 35168 ft 431 kts 114°
2026-04-14 05:53 -13.56583 139.23848 34432 ft 432 kts 114°
2026-04-14 05:54 -13.58035 139.26569 33585 ft 435 kts 114°
2026-04-14 05:54 -13.59480 139.29300 32676 ft 440 kts 114°
2026-04-14 05:54 -13.60919 139.32045 31853 ft 444 kts 114°
2026-04-14 05:54 -13.62370 139.34837 31097 ft 446 kts 114°
2026-04-14 05:55 -13.63830 139.37663 30531 ft 443 kts 114°
2026-04-14 05:55 -13.65101 139.40497 30136 ft 432 kts 104°
2026-04-14 05:55 -13.65731 139.43422 29796 ft 418 kts 93°
2026-04-14 05:55 -13.65796 139.46365 29450 ft 406 kts 82°
2026-04-14 05:56 -13.65364 139.49176 29113 ft 395 kts 73°
2026-04-14 05:56 -13.64492 139.51808 28776 ft 385 kts 63°
2026-04-14 05:56 -13.63361 139.54285 28445 ft 377 kts 62°
2026-04-14 05:56 -13.62228 139.56676 28137 ft 371 kts 62°
2026-04-14 05:57 -13.61114 139.59026 27830 ft 365 kts 62°
2026-04-14 05:57 -13.60007 139.61368 27525 ft 359 kts 62°
2026-04-14 05:57 -13.58937 139.63641 27225 ft 354 kts 62°
2026-04-14 05:57 -13.57864 139.65930 26918 ft 348 kts 62°
2026-04-14 05:58 -13.56827 139.68146 26622 ft 343 kts 62°
2026-04-14 05:58 -13.55797 139.70346 26326 ft 338 kts 62°
2026-04-14 05:58 -13.54796 139.72490 26034 ft 333 kts 62°
2026-04-14 05:58 -13.53801 139.74620 25743 ft 328 kts 62°
2026-04-14 05:59 -13.52829 139.76700 25455 ft 323 kts 62°
2026-04-14 05:59 -13.51858 139.78777 25167 ft 318 kts 62°
2026-04-14 05:59 -13.50910 139.80803 24881 ft 314 kts 63°
2026-04-14 05:59 -13.49977 139.82797 24581 ft 305 kts 63°
2026-04-14 06:00 -13.49082 139.84714 24334 ft 296 kts 63°
2026-04-14 06:00 -13.48189 139.86623 24094 ft 294 kts 63°
2026-04-14 06:00 -13.47303 139.88515 23854 ft 293 kts 63°
2026-04-14 06:00 -13.46431 139.90379 23617 ft 292 kts 63°
2026-04-14 06:01 -13.45551 139.92259 23380 ft 290 kts 63°
2026-04-14 06:01 -13.44680 139.94119 23146 ft 290 kts 63°
2026-04-14 06:01 -13.43803 139.95993 22914 ft 287 kts 63°
2026-04-14 06:01 -13.42945 139.97827 22843 ft 286 kts 63°
2026-04-14 06:02 -13.42084 139.99666 22839 ft 286 kts 63°
2026-04-14 06:02 -13.41219 140.01512 22839 ft 287 kts 63°
2026-04-14 06:02 -13.40354 140.03357 22834 ft 287 kts 63°
2026-04-14 06:02 -13.39487 140.05205 22831 ft 287 kts 63°
2026-04-14 06:03 -13.38626 140.07042 22830 ft 287 kts 63°
2026-04-14 06:03 -13.37764 140.08879 22830 ft 288 kts 63°
2026-04-14 06:03 -13.36894 140.10736 22831 ft 288 kts 63°
2026-04-14 06:04 -13.35158 140.14436 22834 ft 288 kts 63°
2026-04-14 06:04 -13.34289 140.16289 22835 ft 288 kts 63°
2026-04-14 06:04 -13.33420 140.18141 22836 ft 288 kts 63°
2026-04-14 06:04 -13.32556 140.19981 22838 ft 288 kts 63°
2026-04-14 06:05 -13.31686 140.21832 22840 ft 288 kts 63°
2026-04-14 06:05 -13.30823 140.23669 22701 ft 288 kts 63°
2026-04-14 06:05 -13.29960 140.25507 22430 ft 282 kts 63°
2026-04-14 06:05 -13.29117 140.27300 21848 ft 279 kts 63°
2026-04-14 06:06 -13.28271 140.29097 21193 ft 281 kts 64°
2026-04-14 06:06 -13.27425 140.30893 20627 ft 280 kts 64°
2026-04-14 06:06 -13.26585 140.32680 20087 ft 279 kts 64°
2026-04-14 06:06 -13.25749 140.34456 19566 ft 277 kts 64°
2026-04-14 06:07 -13.24917 140.36226 19054 ft 276 kts 64°
2026-04-14 06:07 -13.24089 140.37984 18546 ft 274 kts 64°
2026-04-14 06:07 -13.23267 140.39731 18040 ft 273 kts 65°
2026-04-14 06:07 -13.22437 140.41495 17527 ft 272 kts 65°
2026-04-14 06:08 -13.21627 140.43214 17034 ft 270 kts 65°
2026-04-14 06:08 -13.20816 140.44937 16558 ft 268 kts 65°
2026-04-14 06:08 -13.20003 140.46666 16070 ft 266 kts 65°
2026-04-14 06:08 -13.19212 140.48346 15604 ft 264 kts 65°
2026-04-14 06:09 -13.18420 140.50029 15132 ft 262 kts 65°
2026-04-14 06:09 -13.17632 140.51701 14660 ft 260 kts 65°
2026-04-14 06:09 -13.16843 140.53375 14203 ft 257 kts 65°
2026-04-14 06:09 -13.16074 140.55006 13754 ft 254 kts 65°
2026-04-14 06:10 -13.15314 140.56619 13305 ft 251 kts 64°
2026-04-14 06:10 -13.14562 140.58212 12843 ft 249 kts 64°
2026-04-14 06:10 -13.13804 140.59817 12370 ft 248 kts 65°
2026-04-14 06:10 -13.13057 140.61398 11900 ft 246 kts 65°
2026-04-14 06:11 -13.12318 140.62964 11427 ft 246 kts 65°
2026-04-14 06:11 -13.11577 140.64533 10956 ft 245 kts 65°
2026-04-14 06:11 -13.10840 140.66093 10484 ft 244 kts 65°
2026-04-14 06:11 -13.10100 140.67660 10021 ft 243 kts 65°
2026-04-14 06:12 -13.09373 140.69200 9574 ft 241 kts 65°
2026-04-14 06:12 -13.08649 140.70731 9126 ft 239 kts 65°
2026-04-14 06:12 -13.07922 140.72267 8680 ft 238 kts 65°
2026-04-14 06:12 -13.07214 140.73763 8450 ft 235 kts 65°
2026-04-14 06:13 -13.06492 140.75293 8331 ft 236 kts 66°
2026-04-14 06:13 -13.05782 140.76798 8214 ft 235 kts 66°
2026-04-14 06:13 -13.05067 140.78311 8094 ft 235 kts 65°
2026-04-14 06:13 -13.04347 140.79834 7975 ft 235 kts 66°
2026-04-14 06:14 -13.03636 140.81339 7856 ft 234 kts 65°
2026-04-14 06:14 -13.02932 140.82825 7738 ft 234 kts 65°
2026-04-14 06:14 -13.02218 140.84334 7617 ft 233 kts 66°
2026-04-14 06:14 -13.01506 140.85837 7497 ft 234 kts 66°
2026-04-14 06:15 -13.00795 140.87338 7377 ft 233 kts 66°
2026-04-14 06:15 -13.00089 140.88831 7258 ft 233 kts 66°
2026-04-14 06:15 -12.99377 140.90330 7138 ft 232 kts 66°
2026-04-14 06:15 -12.98682 140.91800 7021 ft 232 kts 66°
2026-04-14 06:16 -12.97975 140.93294 6900 ft 231 kts 66°
2026-04-14 06:16 -12.97274 140.94771 6781 ft 231 kts 66°
2026-04-14 06:16 -12.96565 140.96269 6656 ft 230 kts 66°
2026-04-14 06:16 -12.95868 140.97739 6539 ft 230 kts 67°
2026-04-14 06:17 -12.95166 140.99220 6419 ft 230 kts 67°
2026-04-14 06:17 -12.94476 141.00678 6303 ft 229 kts 66°
2026-04-14 06:17 -12.93776 141.02155 6181 ft 229 kts 66°
2026-04-14 06:17 -12.93085 141.03613 6061 ft 228 kts 66°
2026-04-14 06:18 -12.92394 141.05069 5943 ft 227 kts 66°
2026-04-14 06:18 -12.91698 141.06537 5823 ft 227 kts 66°
2026-04-14 06:18 -12.91010 141.07985 5705 ft 227 kts 66°
2026-04-14 06:18 -12.90313 141.09451 5585 ft 227 kts 66°
2026-04-14 06:19 -12.89621 141.10908 5462 ft 226 kts 67°
2026-04-14 06:19 -12.88936 141.12352 5342 ft 226 kts 66°
2026-04-14 06:19 -12.88254 141.13788 5223 ft 225 kts 67°
2026-04-14 06:19 -12.87564 141.15242 5100 ft 225 kts 67°
2026-04-14 06:20 -12.86881 141.16682 4978 ft 225 kts 67°
2026-04-14 06:20 -12.86196 141.18123 4857 ft 225 kts 67°
2026-04-14 06:20 -12.85513 141.19562 4734 ft 225 kts 67°
2026-04-14 06:20 -12.84824 141.21007 4616 ft 224 kts 67°
2026-04-14 06:21 -12.84149 141.22430 4500 ft 224 kts 67°
2026-04-14 06:21 -12.83461 141.23877 4380 ft 223 kts 67°
2026-04-14 06:21 -12.82786 141.25297 4263 ft 223 kts 66°
2026-04-14 06:21 -12.82099 141.26743 4141 ft 223 kts 67°
2026-04-14 06:22 -12.81424 141.28162 4023 ft 222 kts 67°
2026-04-14 06:22 -12.80750 141.29578 3905 ft 221 kts 67°
2026-04-14 06:22 -12.80072 141.31001 3785 ft 221 kts 67°
2026-04-14 06:22 -12.79404 141.32407 3665 ft 221 kts 67°
2026-04-14 06:23 -12.78727 141.33826 3544 ft 220 kts 67°
2026-04-14 06:23 -12.78059 141.35229 3425 ft 220 kts 67°
2026-04-14 06:23 -12.77382 141.36650 3303 ft 219 kts 67°
2026-04-14 06:23 -12.76719 141.38042 3184 ft 219 kts 67°
2026-04-14 06:24 -12.76055 141.39442 3061 ft 220 kts 67°
2026-04-14 06:24 -12.75381 141.40858 2986 ft 219 kts 67°
2026-04-14 06:24 -12.74718 141.42248 2894 ft 219 kts 67°
2026-04-14 06:24 -12.74046 141.43658 2774 ft 220 kts 66°
2026-04-14 06:25 -12.73373 141.45071 2654 ft 219 kts 66°
2026-04-14 06:25 -12.72708 141.46466 2535 ft 219 kts 66°
2026-04-14 06:25 -12.72036 141.47878 2413 ft 219 kts 66°
2026-04-14 06:25 -12.71367 141.49278 2293 ft 218 kts 66°
2026-04-14 06:26 -12.70702 141.50670 2175 ft 218 kts 66°
2026-04-14 06:26 -12.70035 141.52071 2055 ft 218 kts 66°
2026-04-14 06:26 -12.69366 141.53474 1935 ft 218 kts 66°
2026-04-14 06:26 -12.68696 141.54878 1815 ft 218 kts 66°
2026-04-14 06:27 -12.68033 141.56264 1699 ft 217 kts 66°
2026-04-14 06:27 -12.67374 141.57648 1683 ft 218 kts 66°
2026-04-14 06:27 -12.66700 141.59062 1679 ft 219 kts 66°
2026-04-14 06:27 -12.66030 141.60465 1675 ft 219 kts 66°
2026-04-14 06:28 -12.65361 141.61862 1673 ft 218 kts 66°
2026-04-14 06:28 -12.64695 141.63258 1674 ft 218 kts 66°
2026-04-14 06:28 -12.64026 141.64658 1675 ft 219 kts 66°
2026-04-14 06:28 -12.63361 141.66052 1675 ft 219 kts 65°
2026-04-14 06:29 -12.62691 141.67452 1675 ft 219 kts 66°
2026-04-14 06:29 -12.61994 141.68852 1677 ft 219 kts 62°
2026-04-14 06:29 -12.61177 141.70171 1678 ft 221 kts 57°
2026-04-14 06:29 -12.60282 141.71446 1681 ft 221 kts 56°
2026-04-14 06:30 -12.59366 141.72731 1682 ft 221 kts 56°
2026-04-14 06:30 -12.58471 141.73993 1683 ft 219 kts 56°
2026-04-14 06:30 -12.57602 141.75240 1681 ft 210 kts 61°
2026-04-14 06:30 -12.57249 141.76613 1630 ft 195 kts 102°
2026-04-14 06:31 -12.57857 141.77777 1539 ft 184 kts 130°
2026-04-14 06:31 -12.58672 141.78792 1521 ft 183 kts 127°
2026-04-14 06:31 -12.59429 141.79839 1522 ft 184 kts 126°
2026-04-14 06:31 -12.60142 141.80873 1577 ft 171 kts 126°
2026-04-14 06:32 -12.60787 141.81824 1518 ft 152 kts 126°
2026-04-14 06:32 -12.61370 141.82687 1505 ft 145 kts 126°
2026-04-14 06:32 -12.61942 141.83533 1508 ft 145 kts 125°
2026-04-14 06:32 -12.62515 141.84386 1513 ft 145 kts 124°
2026-04-14 06:33 -12.63089 141.85242 1472 ft 144 kts 124°
2026-04-14 06:33 -12.63636 141.86061 1320 ft 134 kts 124°
2026-04-14 06:33 -12.64143 141.86826 1150 ft 128 kts 124°
2026-04-14 06:34 -12.65125 141.88354 852 ft 128 kts 125°
2026-04-14 06:34 -12.65634 141.89110 660 ft 129 kts 125°
2026-04-14 06:34 -12.66154 141.89851 487 ft 129 kts 124°
2026-04-14 06:34 -12.66657 141.90625 304 ft 130 kts 123°
2026-04-14 06:35 -12.67167 141.91380 155 ft 129 kts 123°
2026-04-14 06:35 -12.67667 141.92129 67 ft 119 kts 123°
2026-04-14 06:35 -12.67984 141.92603 67 ft 37 kts 126°
2026-04-14 06:35 -12.68088 141.92757 67 ft 16 kts 125°
2026-04-14 06:36 -12.68147 141.92841 67 ft 8 kts 123°
2026-04-14 06:36 -12.68126 141.92831 67 ft 9 kts 285°
2026-04-14 06:36 -12.68094 141.92769 67 ft 10 kts 304°
2026-04-14 06:36 -12.68050 141.92702 67 ft 12 kts 304°
2026-04-14 06:37 -12.67984 141.92606 67 ft 20 kts 304°
2026-04-14 06:37 -12.67931 141.92493 67 ft 15 kts 243°
2026-04-14 06:37 -12.67975 141.92418 67 ft 12 kts 292°
2026-04-14 06:37 -12.67957 141.92348 67 ft 9 kts 229°
2026-04-14 06:38 -12.67979 141.92342 67 ft 2 kts 179°
2026-04-14 06:38 -12.67985 141.92342 67 ft 0 kts 179°